Regional Weather Roundup
Issued by NWS

Home | Current Version | Previous Version | Graphics & Text | Print | Product List | Glossary On
Versions: 1 2 3 4 5 6 7 8 9 10 11 12 13 14 15 16 17 18 19 20 21 22 23 24 25 26 27 28 29 30 31 32 33 34 35 36 37 38 39 40 41 42 43 44 45 46 47 48 49 50
000
ASUS43 KLMK 182102
RWRKY
KENTUCKY REGIONAL WEATHER ROUNDUP
NATIONAL WEATHER SERVICE LOUISVILLE KY
400 PM EST SUN FEB 18 2018

NOTE "FAIR" INDICATES FEW OR NO CLOUDS BELOW 12,000 FEET
WITH NO SIGNIFICANT WEATHER AND/OR OBSTRUCTIONS TO VISIBILITY.

KYZ001>023-026-027-061>063-070>075-182200-
WESTERN AND SOUTH CENTRAL KENTUCKY

CITY           SKY/WX    TMP DP  RH WIND       PRES   REMARKS
PADUCAH        FAIR      55  33  43 SE9       30.12F
HENDERSON      FAIR      51  35  54 SE13      30.16F
OWENSBORO      FAIR      53  33  46 SE10      30.17F
HOPKINSVILLE   FAIR      55  29  37 S7        30.16F
BOWLING GREEN  FAIR      56  32  40 SE7       30.18F
GLASGOW        NOT AVBL
$$

KYZ024-025-028>034-038-045-046-053-182200-
NORTH CENTRAL KENTUCKY

CITY           SKY/WX    TMP DP  RH WIND       PRES   REMARKS
LOUISVILLE/SDF PTSUNNY   51  32  48 SE10      30.21F
LOUISVILLE/LOU FAIR      52  32  46 E10       30.22F
FORT KNOX      FAIR      50  32  50 E9        30.20F
$$

KYZ035>037-039>044-047>052-055>060-089>105-182200-
NORTHEAST KENTUCKY

CITY           SKY/WX    TMP DP  RH WIND       PRES   REMARKS
LEXINGTON      FAIR      51  30  44 SE10      30.22F
COVINGTON      CLOUDY    47  33  58 SE10      30.22F
FRANKFORT      FAIR      51  30  44 SE8       30.22F
$$

KYZ054-064>069-076>088-106>120-182200-
SOUTHEAST KENTUCKY

CITY           SKY/WX    TMP DP  RH WIND       PRES   REMARKS
JACKSON        FAIR      53  30  41 MISG      30.23F
LONDON         FAIR      55  33  43 E6        30.21F
SOMERSET       FAIR      55  32  41 S5        30.22F
MIDDLESBORO    FAIR      57  33  40 CALM      30.23F
MONTICELLO     NOT AVBL
$$





USA.gov is the U.S. government's official web portal to all federal, state and local government web resources and services.